Weather History for Springfield, MO

Change the Weather History Date:

Sunday, December 9, 2012

  Actual Average Record
Temperature  
Mean Temperature 49 °F 36 °F  
Max Temperature 52 °F 46 °F 71 °F (1940)
Min Temperature 45 °F 26 °F -8 °F (1917)
Degree Days  
Heating Degree Days 16 29  
Month to date heating degree days 101 248  
Since 1 July heating degree days 1018 1127  
Cooling Degree Days 0 0  
Month to date cooling degree days 2 0  
Year to date cooling degree days 1766 1389  
Moisture  
Dew Point 43 °F    
Average Humidity 88    
Maximum Humidity 100    
Minimum Humidity 54    
Precipitation  
Precipitation 0.00 in 0.10 in 2.77 in (1999)
Month to date precipitation 0.77 1.02  
Year to date precipitation 30.61 43.55  
Snow  
Snow 0.00 in - - ()
Month to date snowfall 0.0  
Since 1 July snowfall 0.0  
Snow Depth -    
Sea Level Pressure  
Sea Level Pressure 29.85 in    
Wind  
Wind Speed 7 mph (North)    
Max Wind Speed 20 mph    
Max Gust Speed 23 mph    
Visibility 6 miles    
Events Fog , Rain    
T = Trace of Precipitation, MM = Missing Value Source: NWS Daily Summary

Daily Weather History Graph

Daily Weather History Graph

Search for Another Location

Airport:

Trip Planner

Search our weather history database for the weather conditions in past years. The results will help you decide how hot, cold, wet, or windy it might be!

Date:

Astronomy

Dec. 09, 2012 Rise Set
Actual Time 7:16 AM CST 4:56 PM CST
Civil Twilight 6:47 AM CST 5:25 PM CST
Nautical Twilight 6:14 AM CST 5:57 PM CST
Astronomical Twilight 5:43 AM CST 6:29 PM CST
Moon 2:53 AM CST (12/9) 1:59 PM CST (12/9)
Length of Visible Light 10h 37m
Length of Day
9h 39m
Waning Crescent, 18% of the Moon is Illuminated
Dec 9
Waning Crescent
Dec 13
New
Dec 19
First Quarter
Dec 28
Full
Jan 4
Last Quarter

Hourly Weather History & Observations

Time (CST) Temp. Windchill Dew Point Humidity Pressure Visibility Wind Dir Wind Speed Gust Speed Precip Events Conditions
12:02 AM 51.8 °F - 48.2 °F 88% 29.82 in 9.0 mi South 6.9 mph - N/A   Overcast
12:42 AM 51.8 °F - 48.2 °F 88% 29.82 in 9.0 mi NW 4.6 mph - 0.00 in Rain Light Rain
12:52 AM 51.1 °F - 48.9 °F 92% 29.82 in 9.0 mi NW 6.9 mph - 0.00 in   Overcast
1:52 AM 50.0 °F - 48.9 °F 96% 29.81 in 5.0 mi Calm Calm - 0.00 in   Overcast
2:20 AM 50.0 °F - 48.2 °F 94% 29.80 in 5.0 mi East 3.5 mph - N/A   Overcast
2:39 AM 50.0 °F - 48.2 °F 94% 29.80 in 5.0 mi East 3.5 mph - N/A   Overcast
2:52 AM 50.0 °F - 48.0 °F 93% 29.80 in 5.0 mi NNE 4.6 mph - N/A   Overcast
3:01 AM 50.0 °F - 48.2 °F 94% 29.80 in 5.0 mi NE 3.5 mph - N/A   Overcast
3:52 AM 50.0 °F - 48.0 °F 93% 29.80 in 4.0 mi NNE 5.8 mph - N/A   Overcast
4:41 AM 48.2 °F - 48.2 °F 100% 29.79 in 4.0 mi ENE 3.5 mph - N/A   Overcast
4:52 AM 48.9 °F - 48.0 °F 97% 29.80 in 4.0 mi NE 3.5 mph - N/A   Overcast
5:04 AM 48.2 °F - 48.2 °F 100% 29.78 in 4.0 mi ENE 4.6 mph - N/A   Overcast
5:22 AM 48.2 °F - 48.2 °F 100% 29.78 in 2.5 mi East 4.6 mph - N/A   Overcast
5:38 AM 48.2 °F - 48.2 °F 100% 29.79 in 1.5 mi Calm Calm - N/A   Overcast
5:52 AM 48.9 °F - 48.9 °F 100% 29.80 in 1.0 mi Calm Calm - N/A   Overcast
6:05 AM 48.2 °F - 48.2 °F 100% 29.79 in 0.8 mi Calm Calm - N/A   Overcast
6:13 AM 50.0 °F - 48.2 °F 94% 29.79 in 1.2 mi NNE 4.6 mph - N/A   Overcast
6:29 AM 50.0 °F - 48.2 °F 94% 29.79 in 2.0 mi Calm Calm - N/A   Overcast
6:52 AM 50.0 °F - 48.9 °F 96% 29.79 in 2.0 mi ENE 3.5 mph - N/A   Overcast
7:00 AM 50.0 °F - 48.2 °F 94% 29.78 in 1.5 mi Calm Calm - N/A   Overcast
7:19 AM 50.0 °F - 48.2 °F 94% 29.79 in 0.2 mi Calm Calm - N/A Fog Fog
7:52 AM 50.0 °F - 50.0 °F 100% 29.79 in 0.2 mi Calm Calm - N/A Fog Fog
7:59 AM 50.0 °F - 50.0 °F 100% 29.80 in 0.5 mi Calm Calm - N/A Fog Fog
8:50 AM 50.0 °F - 48.2 °F 94% 29.81 in 0.8 mi NNW 11.5 mph - N/A   Overcast
8:52 AM 50.0 °F - 48.9 °F 96% 29.82 in 0.8 mi NNW 9.2 mph - N/A   Overcast
9:49 AM 48.2 °F - 48.2 °F 100% 29.83 in 1.5 mi North 13.8 mph - N/A   Overcast
9:52 AM 48.0 °F - 48.0 °F 100% 29.83 in 1.5 mi NNW 10.4 mph - N/A   Overcast
10:06 AM 48.2 °F - 46.4 °F 93% 29.83 in 3.0 mi NNW 12.7 mph - N/A   Overcast
10:52 AM 48.0 °F - 46.0 °F 93% 29.84 in 6.0 mi North 15.0 mph - N/A   Overcast
11:52 AM 46.9 °F - 45.0 °F 93% 29.83 in 9.0 mi North 15.0 mph - N/A   Overcast
12:52 PM 46.0 °F 40.2 °F 43.0 °F 89% 29.83 in 7.0 mi NNW 12.7 mph - N/A   Overcast
1:52 PM 46.0 °F 40.2 °F 42.1 °F 86% 29.84 in 10.0 mi North 12.7 mph - N/A   Overcast
2:52 PM 45.0 °F 40.1 °F 41.0 °F 86% 29.84 in 9.0 mi NNW 9.2 mph - N/A   Overcast
3:42 PM 46.4 °F 40.7 °F 41.0 °F 81% 29.86 in 10.0 mi NNW 12.7 mph - N/A   Overcast
3:52 PM 46.0 °F 40.2 °F 41.0 °F 83% 29.87 in 10.0 mi NNW 12.7 mph - N/A   Overcast
4:52 PM 45.0 °F 37.9 °F 39.9 °F 82% 29.88 in 10.0 mi NW 16.1 mph - N/A   Overcast
5:52 PM 44.1 °F 36.5 °F 37.0 °F 76% 29.91 in 10.0 mi NNW 17.3 mph - N/A   Overcast
6:38 PM 42.8 °F 34.3 °F 37.4 °F 81% 29.92 in 10.0 mi NW 19.6 mph 26.5 mph N/A   Overcast
6:45 PM 42.8 °F 35.1 °F 35.6 °F 76% 29.93 in 10.0 mi NW 16.1 mph 26.5 mph N/A   Overcast
6:52 PM 42.1 °F 34.2 °F 36.0 °F 79% 29.94 in 10.0 mi NNW 16.1 mph - N/A   Overcast
7:52 PM 39.0 °F 31.0 °F 32.0 °F 76% 29.96 in 10.0 mi NW 13.8 mph 23.0 mph N/A   Mostly Cloudy
8:08 PM 39.2 °F 30.8 °F 32.0 °F 75% 29.94 in 10.0 mi NW 15.0 mph 21.9 mph N/A   Scattered Clouds
8:52 PM 35.1 °F 24.5 °F 27.0 °F 72% 29.97 in 10.0 mi NW 18.4 mph 23.0 mph N/A   Clear
9:52 PM 30.9 °F 19.8 °F 21.9 °F 69% 29.99 in 10.0 mi NNW 16.1 mph 27.6 mph N/A   Clear
10:52 PM 28.0 °F 15.3 °F 18.0 °F 66% 30.02 in 10.0 mi NW 18.4 mph 24.2 mph N/A   Clear
11:52 PM 27.0 °F 16.1 °F 17.1 °F 66% 30.03 in 10.0 mi NNW 12.7 mph - N/A   Clear